Regional Weather Roundup
Issued by NWS

Home | Current Version | Previous Version | Text Only | Print | Product List | Glossary Off
Versions: 1 2 3 4 5 6 7 8 9 10 11 12 13 14 15 16 17 18 19 20 21 22 23 24 25 26 27 28 29 30 31 32 33 34 35 36 37 38 39 40 41 42 43 44 45 46 47 48 49 50

440
ASUS43 KBIS 120010
RWRND
NORTH DAKOTA REGIONAL WEATHER ROUNDUP
NATIONAL WEATHER SERVICE EASTERN NORTH DAKOTA/GRAND FORKS ND
600 PM CST THU FEB 11 2016

  NOTE: "FAIR" INDICATES FEW OR NO CLOUDS BELOW 12,000 FEET WITH NO
  SIGNIFICANT WEATHER AND/OR OBSTRUCTIONS TO VISIBILITY.

NDZ001>003-009>011-017-120100-
...NORTHWEST NORTH DAKOTA...

CITY           SKY/WX    TMP DP  RH WIND       PRES   REMARKS
WILLISTON      CLOUDY    23  16  74 N9        30.26R WCI  13
6HR MIN TEMP:  23; 6HR MAX TEMP:  27; 6HR PCP:  0.02;

MINOT          CLOUDY    21  11  65 N7        30.24R WCI  12
MINOT AFB      CLOUDY    18  13  80 N2        30.24R
6HR MIN TEMP:  17; 6HR MAX TEMP:  21; 6HR PCP: TRACE;

$$

NDZ018>021-031>035-040>046-120100-
...SOUTHWEST NORTH DAKOTA...

CITY           SKY/WX    TMP DP  RH WIND       PRES   REMARKS
BISMARCK       CLOUDY    24  15  68 N6        30.22R WCI  17
DICKINSON      CLOUDY    23  18  81 N6        30.17R WCI  16
GARRISON         N/A     19  14  81 N10       30.22R WCI   7
HETTINGER      CLOUDY    25  20  81 N8        30.17R WCI  16
$$

NDZ004>008-012>016-024-026-027-054-120100-
...NORTHEAST NORTH DAKOTA...

CITY           SKY/WX    TMP DP  RH WIND       PRES   REMARKS
GRAND FORKS    CLOUDY    14   8  77 N8        30.26R WCI   3
GRAND FORKS AF FLURRIES  13   7  77 N7        30.26R WCI   3
DEVILS LAKE    FLURRIES   5   2  87 N6        30.24R WCI  -6
$$

NDZ022-023-025-028>030-036>039-047>053-120100-
...SOUTHEAST NORTH DAKOTA...

CITY           SKY/WX    TMP DP  RH WIND       PRES   REMARKS
JAMESTOWN      CLOUDY    14   9  80 N12       30.20R WCI   0
FARGO          CLOUDY    14   3  61 NW6       30.25R WCI   5
WAHPETON       CLOUDY    14   9  79 NW5       30.24S WCI   6
$$




USA.gov is the U.S. government's official web portal to all federal, state and local government web resources and services.